Location: Earls Croome
(52.0667°N, 2.2000°W)
Time: 15:32:32
(UTC+00:00)

Cosmos 372 Rocket - Pass Details

Date: 17 November 2019
Orbit: 739 x 767 km, 74.1° (Epoch: 08 December)

Event Time Altitude Azimuth Distance (km) Brightness Sun altitude
Rises 06:11:19 0° 208° (SSW) 3,194 7.1 -12.2°
Reaches altitude 10° 06:13:41 10° 209° (SSW) 2,269 6.3 -11.8°
Maximum altitude 06:18:50 77° 296° (WNW) 772 3.9 -11.1°
Drops below altitude 10° 06:23:58 10° 23° (NNE) 2,268 6.5 -10.3°
Sets 06:26:20 0° 25° (NNE) 3,193 7.3 -10.0°
